GBNKE KISM-KLAL

Flight info

Callsign GBNKE
Flight time 1h 49m
Altitude 2500
Route LAKE PARKER ARRIVAL FUN N SUN
Aircraft PA24/L-ICAO/7000

Departure

Time 2026-04-21 21:34
Airport Kissimmee Gateway Airport (KISM)

Arrival

Time 2026-04-21 23:23
Airport Lakeland Linder International Airport (KLAL)
Time Latitude Longitude Altitude Speed Heading
2026-04-21 21:23 28.29446 -81.43594 87 ft 0 kts 357°
2026-04-21 21:28 28.29450 -81.43595 87 ft 2 kts 334°
2026-04-21 21:28 28.29432 -81.43600 88 ft 6 kts 134°
2026-04-21 21:29 28.29406 -81.43559 88 ft 7 kts 120°
2026-04-21 21:29 28.29368 -81.43511 89 ft 9 kts 145°
2026-04-21 21:29 28.29314 -81.43504 89 ft 10 kts 220°
2026-04-21 21:29 28.29273 -81.43579 90 ft 11 kts 237°
2026-04-21 21:30 28.29235 -81.43643 90 ft 9 kts 238°
2026-04-21 21:30 28.29204 -81.43700 91 ft 8 kts 239°
2026-04-21 21:30 28.29205 -81.43746 91 ft 6 kts 317°
2026-04-21 21:30 28.29263 -81.43785 89 ft 13 kts 332°
2026-04-21 21:31 28.29350 -81.43847 86 ft 16 kts 326°
2026-04-21 21:31 28.29442 -81.43914 86 ft 16 kts 328°
2026-04-21 21:31 28.29540 -81.43982 85 ft 18 kts 329°
2026-04-21 21:31 28.29639 -81.44051 85 ft 13 kts 323°
2026-04-21 21:32 28.29656 -81.44094 86 ft 0 kts 247°
2026-04-21 21:32 28.29623 -81.44143 87 ft 15 kts 208°
2026-04-21 21:32 28.29511 -81.44086 88 ft 31 kts 147°
2026-04-21 21:32 28.29228 -81.43886 95 ft 62 kts 148°
2026-04-21 21:33 28.28859 -81.43625 194 ft 59 kts 136°
2026-04-21 21:33 28.28500 -81.43308 257 ft 71 kts 136°
2026-04-21 21:33 28.28115 -81.43031 448 ft 65 kts 138°
2026-04-21 21:33 28.27706 -81.42759 605 ft 70 kts 142°
2026-04-21 21:34 28.27277 -81.42467 717 ft 76 kts 143°
2026-04-21 21:34 28.26767 -81.42289 830 ft 82 kts 168°
2026-04-21 21:34 28.26193 -81.42498 890 ft 94 kts 206°
2026-04-21 21:34 28.25764 -81.43082 1006 ft 106 kts 233°
2026-04-21 21:35 28.25453 -81.43855 1144 ft 108 kts 248°
2026-04-21 21:35 28.25211 -81.44688 1257 ft 112 kts 247°
2026-04-21 21:35 28.24888 -81.45516 1323 ft 119 kts 229°
2026-04-21 21:35 28.24246 -81.46088 1404 ft 115 kts 195°
2026-04-21 21:36 28.23537 -81.46394 1497 ft 107 kts 186°
2026-04-21 21:36 28.23051 -81.46533 1540 ft 108 kts 184°
2026-04-21 21:36 28.22046 -81.46810 1592 ft 114 kts 185°
2026-04-21 21:36 28.21258 -81.47012 1590 ft 119 kts 182°
2026-04-21 21:37 28.20471 -81.47213 1692 ft 112 kts 181°
2026-04-21 21:37 28.19703 -81.47390 1726 ft 115 kts 179°
2026-04-21 21:37 28.18918 -81.47495 1773 ft 116 kts 168°
2026-04-21 21:37 28.18148 -81.47309 1787 ft 111 kts 145°
2026-04-21 21:38 28.17551 -81.46811 1793 ft 106 kts 124°
2026-04-21 21:38 28.17271 -81.46345 1782 ft 106 kts 111°
2026-04-21 21:38 28.16936 -81.45360 1798 ft 100 kts 107°
2026-04-21 21:38 28.16739 -81.44578 1772 ft 104 kts 102°
2026-04-21 21:39 28.16573 -81.43786 1820 ft 103 kts 102°
2026-04-21 21:39 28.16396 -81.42991 1804 ft 104 kts 102°
2026-04-21 21:39 28.16186 -81.42234 1830 ft 99 kts 103°
2026-04-21 21:39 28.15987 -81.41479 1832 ft 99 kts 104°
2026-04-21 21:40 28.15750 -81.40755 1864 ft 98 kts 109°
2026-04-21 21:40 28.15545 -81.40014 1861 ft 99 kts 99°
2026-04-21 21:40 28.15451 -81.39232 1875 ft 99 kts 96°
2026-04-21 21:40 28.15360 -81.38471 1876 ft 101 kts 98°
2026-04-21 21:41 28.15233 -81.37691 1888 ft 101 kts 101°
2026-04-21 21:41 28.15082 -81.36910 1890 ft 102 kts 102°
2026-04-21 21:41 28.14918 -81.36123 1875 ft 103 kts 102°
2026-04-21 21:41 28.14729 -81.35334 1870 ft 104 kts 104°
2026-04-21 21:42 28.14486 -81.34569 1866 ft 102 kts 107°
2026-04-21 21:42 28.14237 -81.33811 1890 ft 104 kts 104°
2026-04-21 21:42 28.14030 -81.33027 1902 ft 105 kts 103°
2026-04-21 21:42 28.13872 -81.32235 1915 ft 103 kts 96°
2026-04-21 21:43 28.13774 -81.31423 1912 ft 104 kts 96°
2026-04-21 21:43 28.13657 -81.30623 1936 ft 105 kts 97°
2026-04-21 21:43 28.13547 -81.29806 1950 ft 106 kts 95°
2026-04-21 21:43 28.13518 -81.28985 1938 ft 103 kts 87°
2026-04-21 21:44 28.13580 -81.28184 1936 ft 101 kts 82°
2026-04-21 21:44 28.13682 -81.27651 1941 ft 104 kts 76°
2026-04-21 21:44 28.13967 -81.26636 1951 ft 103 kts 76°
2026-04-21 21:44 28.14149 -81.25836 1956 ft 105 kts 78°
2026-04-21 21:45 28.14312 -81.25040 1956 ft 104 kts 79°
2026-04-21 21:45 28.14443 -81.24252 1949 ft 102 kts 81°
2026-04-21 21:45 28.14544 -81.23464 1943 ft 102 kts 84°
2026-04-21 21:45 28.14639 -81.22666 1939 ft 102 kts 85°
2026-04-21 21:46 28.14715 -81.21861 1918 ft 103 kts 82°
2026-04-21 21:46 28.14812 -81.21054 1924 ft 102 kts 83°
2026-04-21 21:46 28.14902 -81.20248 1937 ft 102 kts 82°
2026-04-21 21:46 28.15005 -81.19492 1933 ft 95 kts 82°
2026-04-21 21:47 28.15129 -81.18739 1939 ft 99 kts 82°
2026-04-21 21:47 28.15254 -81.17983 1940 ft 98 kts 83°
2026-04-21 21:47 28.15374 -81.17214 1936 ft 99 kts 82°
2026-04-21 21:47 28.15485 -81.16440 1933 ft 99 kts 82°
2026-04-21 21:48 28.15590 -81.15655 1932 ft 101 kts 82°
2026-04-21 21:48 28.15688 -81.14876 1939 ft 101 kts 82°
2026-04-21 21:48 28.15790 -81.14084 1939 ft 101 kts 83°
2026-04-21 21:48 28.15886 -81.13300 1935 ft 100 kts 82°
2026-04-21 21:49 28.15967 -81.12501 1935 ft 103 kts 82°
2026-04-21 21:49 28.16045 -81.11715 1930 ft 100 kts 81°
2026-04-21 21:49 28.16118 -81.10924 1932 ft 100 kts 82°
2026-04-21 21:49 28.16207 -81.10132 1932 ft 102 kts 82°
2026-04-21 21:50 28.16295 -81.09332 1936 ft 104 kts 91°
2026-04-21 21:50 28.16151 -81.08818 1926 ft 106 kts 119°
2026-04-21 21:50 28.15533 -81.08334 1925 ft 115 kts 159°
2026-04-21 21:50 28.14729 -81.08453 1923 ft 125 kts 199°
2026-04-21 21:51 28.13719 -81.09248 1932 ft 135 kts 210°
2026-04-21 21:51 28.12962 -81.09908 1938 ft 138 kts 210°
2026-04-21 21:51 28.12469 -81.10344 1943 ft 135 kts 211°
2026-04-21 21:51 28.11469 -81.11230 1946 ft 137 kts 211°
2026-04-21 21:52 28.10740 -81.11884 1939 ft 134 kts 208°
2026-04-21 21:52 28.09979 -81.12509 1935 ft 136 kts 206°
2026-04-21 21:52 28.09205 -81.13116 1922 ft 134 kts 214°
2026-04-21 21:52 28.08646 -81.13944 1923 ft 134 kts 232°
2026-04-21 21:53 28.08144 -81.14846 1935 ft 137 kts 234°
2026-04-21 21:53 28.07625 -81.15772 1938 ft 141 kts 234°
2026-04-21 21:53 28.07283 -81.16397 1943 ft 141 kts 234°
2026-04-21 21:53 28.06586 -81.17648 1940 ft 140 kts 234°
2026-04-21 21:54 28.06057 -81.18599 1938 ft 144 kts 235°
2026-04-21 21:54 28.05531 -81.19559 1934 ft 142 kts 234°
2026-04-21 21:54 28.05025 -81.20528 1932 ft 145 kts 235°
2026-04-21 21:54 28.04546 -81.21501 1937 ft 143 kts 236°
2026-04-21 21:55 28.04095 -81.22499 1924 ft 141 kts 251°
2026-04-21 21:55 28.03927 -81.23603 1931 ft 144 kts 261°
2026-04-21 21:55 28.03875 -81.23977 1931 ft 142 kts 261°
2026-04-21 21:55 28.03665 -81.25827 1933 ft 144 kts 262°
2026-04-21 21:56 28.03532 -81.26938 1934 ft 142 kts 262°
2026-04-21 21:56 28.03389 -81.28046 1938 ft 142 kts 262°
2026-04-21 21:56 28.03307 -81.28777 1943 ft 141 kts 262°
2026-04-21 21:56 28.03151 -81.30248 1946 ft 141 kts 262°
2026-04-21 21:57 28.03025 -81.31344 1941 ft 140 kts 262°
2026-04-21 21:57 28.02883 -81.32446 1941 ft 145 kts 262°
2026-04-21 21:57 28.02742 -81.33582 1939 ft 145 kts 262°
2026-04-21 21:57 28.02592 -81.34713 1939 ft 147 kts 261°
2026-04-21 21:58 28.02433 -81.35852 1941 ft 146 kts 262°
2026-04-21 21:58 28.02277 -81.36974 1941 ft 144 kts 262°
2026-04-21 21:58 28.02174 -81.38108 1941 ft 146 kts 269°
2026-04-21 21:58 28.02259 -81.39228 1936 ft 144 kts 278°
2026-04-21 21:59 28.02368 -81.40353 1934 ft 143 kts 280°
2026-04-21 21:59 28.02498 -81.41475 1934 ft 144 kts 281°
2026-04-21 21:59 28.02762 -81.42556 1936 ft 141 kts 292°
2026-04-21 21:59 28.03055 -81.43602 1937 ft 139 kts 293°
2026-04-21 22:00 28.03361 -81.44661 1939 ft 143 kts 293°
2026-04-21 22:00 28.03573 -81.45392 1942 ft 146 kts 292°
2026-04-21 22:00 28.04001 -81.46857 1939 ft 148 kts 293°
2026-04-21 22:00 28.04306 -81.47943 1937 ft 142 kts 293°
2026-04-21 22:01 28.04505 -81.48640 1938 ft 140 kts 293°
2026-04-21 22:01 28.04922 -81.50038 1938 ft 141 kts 293°
2026-04-21 22:01 28.05191 -81.50710 1940 ft 141 kts 302°
2026-04-21 22:01 28.05750 -81.51615 1940 ft 139 kts 317°
2026-04-21 22:02 28.06590 -81.52709 1934 ft 136 kts 319°
2026-04-21 22:02 28.07199 -81.53493 1931 ft 133 kts 319°
2026-04-21 22:02 28.07800 -81.54285 1929 ft 133 kts 319°
2026-04-21 22:02 28.08203 -81.54826 1936 ft 134 kts 319°
2026-04-21 22:03 28.08929 -81.55478 1933 ft 134 kts 347°
2026-04-21 22:03 28.09760 -81.55836 1946 ft 126 kts 351°
2026-04-21 22:03 28.10578 -81.56141 1940 ft 124 kts 352°
2026-04-21 22:03 28.11681 -81.56545 1939 ft 124 kts 352°
2026-04-21 22:04 28.12514 -81.56842 1944 ft 127 kts 351°
2026-04-21 22:04 28.13361 -81.57134 1942 ft 126 kts 352°
2026-04-21 22:04 28.14209 -81.57427 1942 ft 129 kts 351°
2026-04-21 22:04 28.15071 -81.57700 1938 ft 128 kts 357°
2026-04-21 22:05 28.15946 -81.57912 1937 ft 128 kts 358°
2026-04-21 22:05 28.16812 -81.58099 1937 ft 128 kts
2026-04-21 22:05 28.17681 -81.58222 1937 ft 125 kts
2026-04-21 22:05 28.18554 -81.58334 1936 ft 127 kts
2026-04-21 22:06 28.19431 -81.58444 1937 ft 127 kts
2026-04-21 22:06 28.20015 -81.58527 1937 ft 123 kts
2026-04-21 22:06 28.20848 -81.58673 1934 ft 124 kts
2026-04-21 22:06 28.21697 -81.58814 1934 ft 123 kts
2026-04-21 22:07 28.22839 -81.58966 1943 ft 122 kts 10°
2026-04-21 22:07 28.23636 -81.58780 1982 ft 114 kts 34°
2026-04-21 22:07 28.24200 -81.58260 2076 ft 94 kts 64°
2026-04-21 22:07 28.24481 -81.57612 1976 ft 95 kts 74°
2026-04-21 22:08 28.24635 -81.56898 1927 ft 89 kts 86°
2026-04-21 22:08 28.24689 -81.56215 1877 ft 89 kts 89°
2026-04-21 22:08 28.24699 -81.55737 1780 ft 92 kts 94°
2026-04-21 22:08 28.24663 -81.55268 1753 ft 89 kts 94°
2026-04-21 22:09 28.24750 -81.54093 1600 ft 88 kts 82°
2026-04-21 22:09 28.24808 -81.53632 1548 ft 88 kts 84°
2026-04-21 22:09 28.24860 -81.52920 1461 ft 89 kts 86°
2026-04-21 22:09 28.24946 -81.52229 1405 ft 86 kts 79°
2026-04-21 22:10 28.25098 -81.51599 1191 ft 87 kts 72°
2026-04-21 22:10 28.25330 -81.51048 1095 ft 75 kts 64°
2026-04-21 22:10 28.25610 -81.50549 951 ft 69 kts 66°
2026-04-21 22:10 28.25856 -81.50115 833 ft 65 kts 66°
2026-04-21 22:11 28.26086 -81.49680 762 ft 64 kts 69°
2026-04-21 22:11 28.26296 -81.49242 711 ft 63 kts 69°
2026-04-21 22:11 28.26502 -81.48775 674 ft 69 kts 75°
2026-04-21 22:11 28.26702 -81.48296 632 ft 66 kts 69°
2026-04-21 22:12 28.26933 -81.47840 573 ft 67 kts 70°
2026-04-21 22:12 28.27183 -81.47382 520 ft 67 kts 69°
2026-04-21 22:12 28.27400 -81.46931 504 ft 66 kts 73°
2026-04-21 22:12 28.27617 -81.46447 460 ft 70 kts 70°
2026-04-21 22:13 28.27860 -81.45961 400 ft 72 kts 69°
2026-04-21 22:13 28.28111 -81.45477 354 ft 69 kts 71°
2026-04-21 22:13 28.28354 -81.44995 275 ft 71 kts 67°
2026-04-21 22:13 28.28627 -81.44526 139 ft 74 kts 69°
2026-04-21 22:14 28.28804 -81.44206 93 ft 70 kts 69°
2026-04-21 22:14 28.28979 -81.43887 93 ft 20 kts 60°
2026-04-21 22:14 28.29032 -81.43792 93 ft 16 kts 59°
2026-04-21 22:14 28.29107 -81.43689 92 ft 8 kts 360°
2026-04-21 22:15 28.29182 -81.43722 92 ft 12 kts
2026-04-21 22:15 28.29223 -81.43666 92 ft 9 kts 62°
2026-04-21 22:15 28.29268 -81.43655 89 ft 10 kts 326°
2026-04-21 22:15 28.29306 -81.43720 88 ft 9 kts 314°
2026-04-21 22:16 28.29312 -81.43755 87 ft 6 kts 245°
2026-04-21 22:16 28.29306 -81.43766 87 ft 0 kts 229°
2026-04-21 22:29 28.29306 -81.43767 87 ft 0 kts 229°
2026-04-21 22:32 28.29305 -81.43768 87 ft 2 kts 237°
2026-04-21 22:32 28.29343 -81.43787 89 ft 10 kts 353°
2026-04-21 22:32 28.29404 -81.43849 86 ft 12 kts 290°
2026-04-21 22:32 28.29442 -81.43915 86 ft 11 kts 328°
2026-04-21 22:33 28.29522 -81.43968 85 ft 16 kts 329°
2026-04-21 22:33 28.29620 -81.44037 87 ft 16 kts 328°
2026-04-21 22:33 28.29656 -81.44095 86 ft 5 kts 258°
2026-04-21 22:33 28.29627 -81.44139 87 ft 13 kts 202°
2026-04-21 22:34 28.29513 -81.44080 86 ft 29 kts 148°
2026-04-21 22:34 28.29240 -81.43905 102 ft 59 kts 146°
2026-04-21 22:34 28.28866 -81.43660 182 ft 61 kts 143°
2026-04-21 22:34 28.28466 -81.43405 269 ft 71 kts 140°
2026-04-21 22:35 28.28092 -81.43095 423 ft 65 kts 133°
2026-04-21 22:35 28.27680 -81.42831 567 ft 70 kts 154°
2026-04-21 22:35 28.27147 -81.42757 689 ft 84 kts 169°
2026-04-21 22:35 28.26557 -81.42832 846 ft 88 kts 188°
2026-04-21 22:36 28.25766 -81.44002 832 ft 106 kts 256°
2026-04-21 22:36 28.25785 -81.44863 806 ft 112 kts 286°
2026-04-21 22:36 28.26195 -81.45607 829 ft 110 kts 306°
2026-04-21 22:37 28.26327 -81.46485 807 ft 119 kts 269°
2026-04-21 22:37 28.26296 -81.47383 880 ft 111 kts 270°
2026-04-21 22:37 28.26308 -81.47685 842 ft 115 kts 274°
2026-04-21 22:37 28.26362 -81.49165 897 ft 116 kts 257°
2026-04-21 22:38 28.25957 -81.49903 987 ft 112 kts 202°
2026-04-21 22:38 28.25259 -81.50001 1087 ft 89 kts 149°
2026-04-21 22:38 28.24846 -81.49613 1146 ft 76 kts 101°
2026-04-21 22:38 28.24720 -81.49101 1181 ft 64 kts 95°
2026-04-21 22:39 28.24732 -81.48555 1137 ft 73 kts 64°
2026-04-21 22:39 28.25217 -81.48345 1085 ft 91 kts 358°
2026-04-21 22:39 28.25725 -81.48822 1140 ft 100 kts 317°
2026-04-21 22:39 28.26055 -81.49586 1121 ft 115 kts 295°
2026-04-21 22:40 28.26177 -81.50483 1191 ft 118 kts 275°
2026-04-21 22:40 28.26024 -81.51412 1202 ft 120 kts 246°
2026-04-21 22:40 28.25536 -81.52150 1244 ft 113 kts 211°
2026-04-21 22:40 28.24859 -81.52418 1297 ft 100 kts 164°
2026-04-21 22:41 28.24310 -81.52077 1389 ft 82 kts 122°
2026-04-21 22:41 28.24129 -81.51717 1393 ft 80 kts 104°
2026-04-21 22:41 28.23928 -81.50958 1389 ft 74 kts 102°
2026-04-21 22:41 28.23808 -81.50386 1357 ft 73 kts 98°
2026-04-21 22:42 28.23692 -81.49818 1339 ft 76 kts 101°
2026-04-21 22:42 28.23555 -81.49242 1323 ft 74 kts 102°
2026-04-21 22:42 28.23450 -81.48657 1282 ft 78 kts 89°
2026-04-21 22:42 28.23612 -81.48071 1265 ft 77 kts 60°
2026-04-21 22:43 28.24011 -81.47697 1190 ft 77 kts 36°
2026-04-21 22:43 28.24579 -81.47638 1089 ft 91 kts 360°
2026-04-21 22:43 28.25143 -81.48049 1024 ft 103 kts 327°
2026-04-21 22:43 28.25578 -81.48728 944 ft 111 kts 306°
2026-04-21 22:44 28.25881 -81.49562 919 ft 116 kts 295°
2026-04-21 22:44 28.26152 -81.50426 954 ft 117 kts 298°
2026-04-21 22:44 28.26510 -81.51228 1008 ft 112 kts 309°
2026-04-21 22:44 28.26787 -81.51720 1046 ft 110 kts 316°
2026-04-21 22:45 28.27308 -81.52336 1089 ft 106 kts 332°
2026-04-21 22:45 28.27863 -81.52865 1120 ft 105 kts 331°
2026-04-21 22:45 28.28345 -81.53503 1087 ft 109 kts 307°
2026-04-21 22:45 28.28586 -81.54338 1090 ft 114 kts 283°
2026-04-21 22:46 28.28590 -81.55238 1116 ft 116 kts 267°
2026-04-21 22:46 28.28535 -81.56153 1152 ft 119 kts 269°
2026-04-21 22:46 28.28632 -81.57084 1141 ft 119 kts 291°
2026-04-21 22:46 28.28944 -81.57939 1147 ft 117 kts 300°
2026-04-21 22:47 28.29271 -81.58785 1148 ft 117 kts 303°
2026-04-21 22:47 28.29588 -81.59635 1151 ft 117 kts 302°
2026-04-21 22:47 28.30002 -81.60409 1173 ft 112 kts 324°
2026-04-21 22:47 28.30618 -81.60875 1203 ft 103 kts 352°
2026-04-21 22:48 28.31266 -81.61130 1218 ft 95 kts 358°
2026-04-21 22:48 28.31900 -81.61287 1250 ft 91 kts
2026-04-21 22:48 28.32722 -81.61149 1285 ft 90 kts 32°
2026-04-21 22:48 28.33303 -81.60956 1280 ft 85 kts 24°
2026-04-21 22:49 28.33892 -81.60849 1267 ft 86 kts 19°
2026-04-21 22:49 28.34295 -81.60797 1258 ft 87 kts 20°
2026-04-21 22:49 28.34913 -81.60789 1180 ft 96 kts 352°
2026-04-21 22:49 28.35398 -81.61386 1090 ft 112 kts 297°
2026-04-21 22:50 28.35577 -81.62240 1117 ft 112 kts 285°
2026-04-21 22:50 28.35735 -81.63102 1115 ft 112 kts 285°
2026-04-21 22:50 28.35889 -81.63961 1117 ft 113 kts 282°
2026-04-21 22:50 28.36047 -81.64840 1179 ft 113 kts 286°
2026-04-21 22:51 28.36478 -81.65951 1217 ft 115 kts 319°
2026-04-21 22:51 28.36849 -81.66341 1296 ft 106 kts 336°
2026-04-21 22:51 28.37457 -81.66789 1315 ft 104 kts 337°
2026-04-21 22:51 28.38020 -81.67300 1309 ft 106 kts 327°
2026-04-21 22:52 28.38585 -81.67833 1330 ft 104 kts 332°
2026-04-21 22:52 28.39212 -81.68241 1326 ft 103 kts 344°
2026-04-21 22:52 28.39836 -81.68570 1370 ft 92 kts 347°
2026-04-21 22:52 28.40421 -81.68853 1277 ft 91 kts 349°
2026-04-21 22:53 28.40986 -81.69092 1254 ft 88 kts 353°
2026-04-21 22:53 28.41582 -81.69281 1194 ft 87 kts 356°
2026-04-21 22:53 28.42174 -81.69424 1162 ft 93 kts 359°
2026-04-21 22:53 28.42830 -81.69527 1093 ft 92 kts
2026-04-21 22:54 28.43470 -81.69609 1067 ft 93 kts
2026-04-21 22:54 28.44113 -81.69658 969 ft 98 kts
2026-04-21 22:54 28.44811 -81.69682 941 ft 102 kts
2026-04-21 22:54 28.45535 -81.69704 919 ft 105 kts 10°
2026-04-21 22:55 28.46248 -81.69642 885 ft 99 kts 13°
2026-04-21 22:55 28.46941 -81.69550 965 ft 99 kts 14°
2026-04-21 22:55 28.47593 -81.69431 1026 ft 95 kts 18°
2026-04-21 22:55 28.48257 -81.69386 1127 ft 96 kts 10°
2026-04-21 22:56 28.48930 -81.69379 1201 ft 99 kts
2026-04-21 22:56 28.49598 -81.69665 1212 ft 107 kts 332°
2026-04-21 22:56 28.50178 -81.70225 1303 ft 111 kts 323°
2026-04-21 22:56 28.50710 -81.70867 1326 ft 114 kts 306°
2026-04-21 22:57 28.50927 -81.71735 1339 ft 117 kts 266°
2026-04-21 22:57 28.50756 -81.72629 1457 ft 115 kts 245°
2026-04-21 22:57 28.50422 -81.73468 1507 ft 116 kts 243°
2026-04-21 22:57 28.50125 -81.74320 1555 ft 116 kts 246°
2026-04-21 22:58 28.49845 -81.75187 1562 ft 118 kts 248°
2026-04-21 22:58 28.49575 -81.76081 1495 ft 120 kts 249°
2026-04-21 22:58 28.49305 -81.76994 1449 ft 122 kts 249°
2026-04-21 22:58 28.49051 -81.77888 1380 ft 118 kts 252°
2026-04-21 22:59 28.48832 -81.78775 1321 ft 114 kts 254°
2026-04-21 22:59 28.48631 -81.79671 1252 ft 120 kts 259°
2026-04-21 22:59 28.48547 -81.80622 1194 ft 121 kts 267°
2026-04-21 22:59 28.48397 -81.81552 1150 ft 121 kts 240°
2026-04-21 23:00 28.48016 -81.82065 1158 ft 118 kts 214°
2026-04-21 23:00 28.47099 -81.82522 1220 ft 110 kts 191°
2026-04-21 23:00 28.46385 -81.82783 1235 ft 106 kts 183°
2026-04-21 23:00 28.45683 -81.82935 1242 ft 104 kts 178°
2026-04-21 23:01 28.44957 -81.83085 1267 ft 104 kts 179°
2026-04-21 23:01 28.44243 -81.83216 1269 ft 104 kts 178°
2026-04-21 23:01 28.43542 -81.83351 1288 ft 105 kts 176°
2026-04-21 23:01 28.42821 -81.83463 1301 ft 103 kts 172°
2026-04-21 23:02 28.42111 -81.83487 1290 ft 100 kts 165°
2026-04-21 23:02 28.41427 -81.83457 1275 ft 99 kts 167°
2026-04-21 23:02 28.40737 -81.83464 1275 ft 99 kts 171°
2026-04-21 23:02 28.40037 -81.83532 1249 ft 103 kts 173°
2026-04-21 23:03 28.39330 -81.83500 1235 ft 100 kts 162°
2026-04-21 23:03 28.38675 -81.83280 1246 ft 96 kts 148°
2026-04-21 23:03 28.38093 -81.82951 1269 ft 92 kts 141°
2026-04-21 23:03 28.37565 -81.82563 1280 ft 89 kts 134°
2026-04-21 23:04 28.37063 -81.82162 1295 ft 89 kts 136°
2026-04-21 23:04 28.36511 -81.81829 1270 ft 93 kts 150°
2026-04-21 23:04 28.35881 -81.81658 1256 ft 94 kts 160°
2026-04-21 23:04 28.35232 -81.81544 1229 ft 93 kts 162°
2026-04-21 23:05 28.34605 -81.81428 1211 ft 92 kts 160°
2026-04-21 23:05 28.33970 -81.81354 1184 ft 94 kts 164°
2026-04-21 23:05 28.33295 -81.81305 1190 ft 99 kts 165°
2026-04-21 23:05 28.32632 -81.81205 1207 ft 94 kts 161°
2026-04-21 23:06 28.31987 -81.81059 1221 ft 95 kts 162°
2026-04-21 23:06 28.31330 -81.80935 1207 ft 96 kts 163°
2026-04-21 23:06 28.30662 -81.80825 1200 ft 98 kts 161°
2026-04-21 23:06 28.29989 -81.80699 1204 ft 98 kts 159°
2026-04-21 23:07 28.29328 -81.80534 1224 ft 96 kts 154°
2026-04-21 23:07 28.28714 -81.80320 1204 ft 90 kts 149°
2026-04-21 23:07 28.28130 -81.80053 1167 ft 92 kts 152°
2026-04-21 23:07 28.27519 -81.79823 1125 ft 92 kts 153°
2026-04-21 23:08 28.26961 -81.79484 1132 ft 92 kts 137°
2026-04-21 23:08 28.26466 -81.79035 1208 ft 89 kts 134°
2026-04-21 23:08 28.25976 -81.78605 1240 ft 91 kts 134°
2026-04-21 23:08 28.25495 -81.78168 1298 ft 86 kts 129°
2026-04-21 23:09 28.25058 -81.77700 1327 ft 87 kts 127°
2026-04-21 23:09 28.24611 -81.77240 1358 ft 87 kts 130°
2026-04-21 23:09 28.24448 -81.77097 1353 ft 89 kts 136°
2026-04-21 23:09 28.23478 -81.76617 1400 ft 90 kts 155°
2026-04-21 23:10 28.22826 -81.76571 1373 ft 99 kts 181°
2026-04-21 23:10 28.22203 -81.76946 1348 ft 111 kts 214°
2026-04-21 23:10 28.21854 -81.77398 1365 ft 116 kts 224°
2026-04-21 23:10 28.21218 -81.78329 1338 ft 109 kts 223°
2026-04-21 23:11 28.20733 -81.78992 1314 ft 114 kts 224°
2026-04-21 23:11 28.20186 -81.79684 1272 ft 116 kts 220°
2026-04-21 23:11 28.19606 -81.80263 1273 ft 112 kts 203°
2026-04-21 23:11 28.18943 -81.80702 1302 ft 106 kts 195°
2026-04-21 23:12 28.18251 -81.81021 1259 ft 109 kts 189°
2026-04-21 23:12 28.17569 -81.81394 1237 ft 110 kts 204°
2026-04-21 23:12 28.16939 -81.81904 1223 ft 114 kts 205°
2026-04-21 23:12 28.16275 -81.82414 1223 ft 114 kts 200°
2026-04-21 23:13 28.15584 -81.82796 1209 ft 110 kts 191°
2026-04-21 23:13 28.14868 -81.83090 1215 ft 108 kts 187°
2026-04-21 23:13 28.14157 -81.83327 1198 ft 108 kts 182°
2026-04-21 23:13 28.13446 -81.83562 1191 ft 105 kts 183°
2026-04-21 23:14 28.12756 -81.83828 1172 ft 106 kts 200°
2026-04-21 23:14 28.12168 -81.84400 1191 ft 118 kts 226°
2026-04-21 23:14 28.11854 -81.84916 1197 ft 123 kts 236°
2026-04-21 23:14 28.11395 -81.86074 1222 ft 115 kts 243°
2026-04-21 23:15 28.11067 -81.86895 1237 ft 115 kts 241°
2026-04-21 23:15 28.10703 -81.87734 1265 ft 121 kts 238°
2026-04-21 23:15 28.10295 -81.88567 1285 ft 120 kts 237°
2026-04-21 23:15 28.09922 -81.89391 1286 ft 118 kts 237°
2026-04-21 23:16 28.09534 -81.90210 1264 ft 120 kts 238°
2026-04-21 23:16 28.09157 -81.91053 1202 ft 120 kts 239°
2026-04-21 23:16 28.08786 -81.91888 1201 ft 117 kts 238°
2026-04-21 23:16 28.08433 -81.92711 1173 ft 114 kts 246°
2026-04-21 23:17 28.08276 -81.93592 1116 ft 116 kts 263°
2026-04-21 23:17 28.08210 -81.94518 1075 ft 121 kts 267°
2026-04-21 23:17 28.08220 -81.95446 1117 ft 117 kts 274°
2026-04-21 23:17 28.08225 -81.96389 1094 ft 124 kts 259°
2026-04-21 23:18 28.07979 -81.97295 1129 ft 116 kts 239°
2026-04-21 23:18 28.07562 -81.98078 1172 ft 116 kts 227°
2026-04-21 23:18 28.07014 -81.98731 1213 ft 113 kts 213°
2026-04-21 23:18 28.06492 -81.99416 1205 ft 117 kts 239°
2026-04-21 23:19 28.06148 -82.00230 1264 ft 116 kts 238°
2026-04-21 23:19 28.05766 -82.01048 1237 ft 117 kts 227°
2026-04-21 23:19 28.05198 -82.01663 1219 ft 114 kts 199°
2026-04-21 23:19 28.04476 -82.01867 1224 ft 101 kts 179°
2026-04-21 23:20 28.03781 -82.01997 1212 ft 101 kts 176°
2026-04-21 23:20 28.03105 -82.02106 1225 ft 97 kts 174°
2026-04-21 23:20 28.02427 -82.02174 1219 ft 97 kts 173°
2026-04-21 23:20 28.01759 -82.02243 1178 ft 95 kts 172°
2026-04-21 23:21 28.01082 -82.02309 1110 ft 99 kts 171°
2026-04-21 23:21 28.00415 -82.02380 972 ft 94 kts 184°
2026-04-21 23:21 27.99936 -82.02896 801 ft 103 kts 253°
2026-04-21 23:21 27.99819 -82.03666 761 ft 103 kts 251°
2026-04-21 23:22 27.99285 -82.04044 694 ft 85 kts 135°
2026-04-21 23:22 27.99101 -82.03517 437 ft 69 kts 95°
2026-04-21 23:22 27.99082 -82.03345 394 ft 67 kts 97°
2026-04-21 23:22 27.99044 -82.02811 278 ft 70 kts 88°
2026-04-21 23:23 27.99042 -82.01971 178 ft 58 kts 91°
2026-04-21 23:23 27.99040 -82.01592 137 ft 36 kts 89°
2026-04-21 23:23 27.99043 -82.01361 139 ft 23 kts 87°
2026-04-21 23:23 27.99041 -82.01260 139 ft 15 kts 90°
2026-04-21 23:24 27.99047 -82.01101 140 ft 23 kts 88°
2026-04-21 23:24 27.99051 -82.00933 143 ft 16 kts 94°
2026-04-21 23:24 27.99018 -82.00829 145 ft 12 kts 127°
2026-04-21 23:24 27.98961 -82.00765 143 ft 11 kts 162°
2026-04-21 23:25 27.98868 -82.00757 141 ft 16 kts 175°
2026-04-21 23:25 27.98754 -82.00750 139 ft 14 kts 187°
2026-04-21 23:25 27.98679 -82.00751 139 ft 9 kts 178°
2026-04-21 23:25 27.98646 -82.00774 140 ft 8 kts 284°
2026-04-21 23:26 27.98648 -82.00869 139 ft 16 kts 267°
2026-04-21 23:26 27.98621 -82.00973 139 ft 11 kts 248°
2026-04-21 23:26 27.98591 -82.01060 139 ft 14 kts 251°
2026-04-21 23:26 27.98557 -82.01175 140 ft 17 kts 251°
2026-04-21 23:27 27.98511 -82.01290 142 ft 12 kts 238°
2026-04-21 23:27 27.98484 -82.01338 141 ft 6 kts 242°
2026-04-21 23:27 27.98491 -82.01355 142 ft 0 kts